Вернуться в каталог

DELTA 1 DEB

АктивенSSO
NORAD 2118·DEBRIS·🇺🇸 United States

Запущен Feb 3, 1966 с Cape Canaveral Space Force Station

Loading…

Ближайшие Пролёты (ближайшие 24 часа)

TLE

СвежийSource: Space-Track

Эпоха: Sep 14, 2026, 13:57 UTC

1 02118U 66008D   26257.58152317  .00000294  00000-0  85476-4 0  9995
2 02118  98.0719  25.4859 0124543 309.2912  49.7288 14.46998564148755

Отслеживайте DELTA 1 DEB в реальном времени с AllMySat

Download on the App Store